Location: Newark
(34.1333°N, 7.9667°W)
Time: 19:30:48
(UTC+00:00)

Transit 2A - Pass Details

Date: 13 June 2021
Orbit: 598 x 960 km, 66.7° (Epoch: 01 August)

Event Time Altitude Azimuth Distance (km) Brightness Sun altitude
Rises 17:35:28 0° 192° (SSW) 2,923 9.0 24.0°
Reaches altitude 10° 17:37:50 10° 187° (S) 1,983 8.2 23.6°
Maximum altitude 17:42:05 48° 113° (ESE) 789 6.0 22.7°
Drops below altitude 10° 17:46:14 10° 38° (NE) 1,938 7.9 21.9°
Sets 17:48:31 0° 33° (NNE) 2,849 8.8 21.4°
